Terminal Aerodrome Forecast
Issued by NWS Nashville, TN

Home | Current Version | Previous Version | Text Only | Print | Product List | Glossary On
Versions: 1 2 3 4 5 6 7 8 9 10 11 12 13 14 15 16 17 18 19 20
000
FTUS44 KOHX 221100
TAFCSV
TAF
KCSV 221120Z 2212/2312 01008G15KT P6SM FEW040=

USA.gov is the U.S. government's official web portal to all federal, state and local government web resources and services.